Location: *
(29.1167°S, 130.0000°E)
Time: 03:36:50
(UTC+00:00)

CZ-4 R/B - Pass Details

Date: 21 July 2019
Orbit: 531 x 599 km, 97.8° (Epoch: 24 August)

Event Time Altitude Azimuth Distance (km) Brightness Sun altitude
Exits shadow 09:25:52 12° 121° (ESE) 1,787 3.3 -9.7°
Maximum altitude 09:28:10 18° 84° (E) 1,487 3.0 -10.2°
Drops below altitude 10° 09:31:01 10° 41° (NE) 1,926 3.9 -10.8°
Sets 09:33:47 0° 22° (NNE) 2,825 4.9 -11.3°
